STARLINK-32767, 62601

Orbit data source: Space-Track

STARLINK-32767, 62601 is a payload satellite owned by SpaceX/Seattle (US) in LEO that was launched on Mon, 13 Jan 2025 UTC via an FALCON 9 launch vehicle from the Air Force Eastern Test Range (AFETR). Payload-class satellites include a variety of spacecraft equipped with specific instruments for various scientific and technological missions. These include communications satellites like Starlink; space stations such as the ISS; scientific satellites like the Hubble; Earth observation satellites from companies like Planet Labs, Umbra, and HawkEye 360; GPS; miniature CubeSats for education and research; and military/defense satellites.

Loading next visibility...
Identifier
62601, 2025-008Q
Orbit
LEO
Country
Flag of USUS
Related business
Manufacturer
SpaceX/Seattle
Mission
Operational Commercial Communications
Bus & Motor
STARLINK V2M, Unknown motor
Mass
730 kg wet, ~700 kg dry
Launch date (UTC)
2025-01-13 (2 years ago)
Launch vehicle
FALCON 9
Launch site
Air Force Eastern Test Range (AFETR)
Object type
Payload
Rocket body
Debris
Shape & HBR
Box + 2 Pan, 17.7 m
Radar Cross Section
33.884 m², Large (>1 m²)

Expand to show TLE details & history
Last TLE update: 7 hours ago

TLE from 7 hours ago
0 STARLINK-32767
1 62601U 25008Q   26236.52061895  .00027003  00000-0  98682-3 0  9993
2 62601  43.0014  49.9555 0002029 279.7481  80.3142 15.27592520 91294
Epoch: 2026-08-24T12:29Z
TLE epoch observation values (Epoch: 2026-08-24T12:29:41.477Z)
Latitude
0.00003°
Longitude
-110.26843°
Altitude
482.553 km
Speed
7.626 km/s
True Right ascension
03h 19m 49s
True Declination
0° 00' 00"
Sunlit
Object was in daylight at epoch
Visualization orbit readout
Latitude
Unknown
Longitude
Unknown
Altitude
Unknown
Speed
Unknown
Apparent Right ascension
Unknown
Apparent Declination
Unknown
Sunlit
N/A
Visualization observer readout
Local Sidereal Time
10:30:43
Azimuth
Unknown
Elevation
Unknown
Doppler factor
Unknown
Orbital elements
Apogee altitude
486.349 km
Perigee altitude
483.564 km
Semi-major axis
6,863.094 km
Eccentricity
0.0002
Inclination
43.0014°
RAAN
49.9555°
Arg. of periapsis
279.7481°
True anomaly
80.33712°
Mean anomaly
80.3142°
Eccentric anomaly
80.32566°
Mean motion
3.81736 °/min
Orbital period
94.31 mins
BSTAR
0.00098682
Loading maneuver chart data...
Computing Atmospheric mass density...
Loading historical data...
Loading historical data...
Loading historical data...
Loading historical data...
Loading historical data...
Loading historical data...
Loading historical data...

Documentation

Showing up to 5 results
|